Showing default

SYRACUSE 4A, 49333

Orbit data source: Space-Track

SYRACUSE 4A, 49333 is a payload satellite owned by DGA (FR) in GEO that was launched on Sun, 24 Oct 2021 UTC via an ARIANE 5ECA+ launch vehicle from the French Guiana (FRGUI). Payload-class satellites include a variety of spacecraft equipped with specific instruments for various scientific and technological missions. These include communications satellites like Starlink; space stations such as the ISS; scientific satellites like the Hubble; Earth observation satellites from companies like Planet Labs, Umbra, and HawkEye 360; GPS; miniature CubeSats for education and research; and military/defense satellites.

Not visible in the next 10 days
Identifier
49333, 2021-095B
Orbit
GEO
Last TLE update
9 hours ago
Origin
Manufacturer
Thales Alenia
Mission
Operational Defense Communications
Bus & Motor
SPACEBUS NEO100, XPS/PPS-5000
Mass
3,852 kg wet, ~3,200 kg dry
Launch date (UTC)
2021-10-24 (4 years ago)
Launch vehicle
ARIANE 5ECA+
Launch site
French Guiana (FRGUI)
Object type
Payload
Rocket body
Debris
Shape & HBR
Box + 2 Pan, 30 m
Radar Cross Section
34.063 m², Medium (>0.1 m² and < 1m²)

Expand to show TLE details & history

TLE from 9 hours ago
0 SYRACUSE 4A
1 49333U 21095B   25188.97942319  .00000151  00000-0  00000-0 0  9994
2 49333   0.0276  32.9344 0001582  69.7017 221.6419  1.00268917 14509
Epoch: 2025-07-07T23:30Z
TLE epoch observation values (Epoch: 2025-07-07T23:30:22.163Z)
Latitude
-0.04685°
Longitude
45.49395°
Altitude
35,791.904 km
Speed
3.074 km/s
True Right ascension
21h 37m 04s
True Declination
0° 02' 48"
Sunlit
Object was in daylight at epoch
Visualization orbit readout
Latitude
0.05085°
Longitude
-178.1259°
Altitude
35,780.134 km
Speed
3.075 km/s
Apparent Right ascension
06h 54m 26s
Apparent Declination
-4° 57' 31"
Sunlit
Object is in daylight
Visualization observer readout
Local Sidereal Time
20:40:06
Azimuth
41.205° NE
Elevation
-47.714°
Doppler factor
1
Orbital elements
Apogee altitude
35,795.14 km
Perigee altitude
35,781.799 km
Semi-major axis
42,166.606 km
Eccentricity
0.00016
Inclination
0.0276°
RAAN
32.9344°
Arg. of periapsis
69.7017°
True anomaly
Unknown
Mean anomaly
221.6419°
Eccentric anomaly
Unknown
Mean motion
0.25066 °/min
Orbital period
1,436.19 mins
BSTAR
0
Loading historical data...
49333 neighbors
Loading maneuver chart data...
Loading SW <> Apogee altitude chart data...
Loading historical data...
Loading historical data...
Loading historical data...
Loading historical data...
Loading historical data...
Loading historical data...
Loading historical data...
Other satellites on launch #95 in the year 2021 (2021-10-24 UTC)

SYRACUSE 4A Visibility

Observer location: undefined°, undefined°

SYRACUSE 4A is likely not visible in the next few days
Span
Click to sort rows by Start time (UTC) header in descending order
Start Az.
Max El. time (UTC)
Max El. Az.
Max El.
End time (UTC)
End Az.
|